Cancun International Airp, Mexico

5:53 AM EST on August 24, 2016 (GMT -0500)
Cancun International

Weather History for MMUN - October, 2012

Change the Weather History Date:

Tuesday, October 9, 2012

  Actual Average Record
Temperature  
Mean Temperature 80 °F -  
Max Temperature 87 °F 87 °F 93 °F (2005)
Min Temperature 73 °F 73 °F 62 °F (2010)
Cooling Degree Days 15    
Growing Degree Days 30 (Base 50)    
Moisture  
Dew Point 74 °F    
Average Humidity 87    
Maximum Humidity 100    
Minimum Humidity 62    
Precipitation  
Precipitation 0.00 in - - ()
Sea Level Pressure  
Sea Level Pressure 29.96 in    
Wind  
Wind Speed 3 mph ()    
Max Wind Speed 10 mph    
Max Gust Speed -    
Visibility 6.7 miles    
Events      
Averages and records for this station are not official NWS values.
T = Trace of Precipitation, MM = Missing Value Source: Averaged Metar Reports

Daily Weather History Graph

Daily Weather History Graph

Search for Another Location

Airport or City:

Trip Planner

Search our weather history database for the weather conditions in past years. The results will help you decide how hot, cold, wet, or windy it might be!

Date:

Astronomy

Oct. 09, 2012 Rise Set
Actual Time 6:41 AM CDT 6:27 PM CDT
Civil Twilight 6:18 AM CDT 6:50 PM CDT
Nautical Twilight 5:53 AM CDT 7:15 PM CDT
Astronomical Twilight 5:27 AM CDT 7:41 PM CDT
Moon 1:01 AM CDT (10/9) 2:14 PM CDT (10/9)
Length of Visible Light 12h 31m
Length of Day
11h 46m
Last Quarter, 36% of the Moon is Illuminated
Oct 9
Last Quarter
Oct 15
New
Oct 21
First Quarter
Oct 29
Full
Nov 6
Last Quarter

Hourly Weather History & Observations

Time (CDT) Temp. Heat Index Dew Point Humidity Pressure Visibility Wind Dir Wind Speed Gust Speed Precip Events Conditions
12:43 AM 75.2 °F - 73.4 °F 94% 29.97 in 6.0 mi Calm Calm - N/A   Mostly Cloudy
1:47 AM 73.4 °F - 73.4 °F 100% 29.96 in 6.0 mi WSW 2.3 mph - N/A   Scattered Clouds
2:46 AM 75.2 °F - 73.4 °F 94% 29.94 in 6.0 mi NNW 3.5 mph - N/A   Scattered Clouds
3:40 AM 73.4 °F - 73.4 °F 100% 29.93 in 6.0 mi NW 3.5 mph - N/A   Scattered Clouds
4:45 AM 73.4 °F - 73.4 °F 100% 29.93 in 6.0 mi NW 2.3 mph - N/A   Scattered Clouds
5:42 AM 73.4 °F - 73.4 °F 100% 29.94 in 6.0 mi North 3.5 mph - N/A   Partly Cloudy
6:45 AM 73.4 °F - 73.4 °F 100% 29.94 in 6.0 mi WNW 2.3 mph - N/A   Scattered Clouds
7:47 AM 77.0 °F - 77.0 °F 100% 29.97 in 6.0 mi NNE 2.3 mph - N/A   Scattered Clouds
8:42 AM 82.4 °F 90.9 °F 77.0 °F 84% 29.99 in 7.0 mi NE 2.3 mph - N/A   Scattered Clouds
9:50 AM 86.0 °F 93.4 °F 73.4 °F 66% 30.01 in 7.0 mi East 6.9 mph - N/A   Scattered Clouds
10:46 AM 86.0 °F 93.4 °F 73.4 °F 66% 30.01 in 7.0 mi NE 4.6 mph - N/A   Scattered Clouds
11:47 AM 86.0 °F 93.4 °F 73.4 °F 66% 30.00 in 7.0 mi ESE 8.1 mph - N/A   Scattered Clouds
12:44 PM 87.8 °F 95.6 °F 73.4 °F 62% 29.98 in 7.0 mi ESE 10.4 mph - N/A   Scattered Clouds
1:41 PM 84.2 °F 92.3 °F 75.2 °F 74% 29.96 in 7.0 mi NE 5.8 mph - N/A   Scattered Clouds
2:48 PM 82.4 °F 89.5 °F 75.2 °F 79% 29.93 in 7.0 mi East 4.6 mph - N/A   Mostly Cloudy
3:43 PM 82.4 °F 89.5 °F 75.2 °F 79% 29.92 in 7.0 mi NE 3.5 mph - N/A   Mostly Cloudy
4:42 PM 80.6 °F 86.2 °F 75.2 °F 84% 29.93 in 7.0 mi Calm Calm - N/A   Mostly Cloudy
5:44 PM 80.6 °F 87.1 °F 77.0 °F 89% 29.93 in 7.0 mi Calm Calm - N/A   Mostly Cloudy
6:48 PM 78.8 °F - 75.2 °F 89% 29.92 in 7.0 mi Calm Calm - N/A   Mostly Cloudy
7:42 PM 78.8 °F - 75.2 °F 89% 29.95 in 7.0 mi North 5.8 mph - N/A   Mostly Cloudy
8:41 PM 77.0 °F - 73.4 °F 89% 29.96 in 7.0 mi NNW 3.5 mph - N/A   Mostly Cloudy
9:48 PM 77.0 °F - 73.4 °F 89% 29.94 in 7.0 mi NNE 5.8 mph - N/A   Mostly Cloudy
10:47 PM 77.0 °F - 75.2 °F 94% 30.00 in 7.0 mi NNE 5.8 mph - N/A   Mostly Cloudy
11:46 PM 77.0 °F - 75.2 °F 94% 29.99 in 7.0 mi North 5.8 mph - N/A   Mostly Cloudy